Regional Weather Roundup
Issued by NWS Sioux Falls, SD

Home | Current Version | Previous Version | Text Only | Print | Product List | Glossary On
Versions: 1 2 3 4 5 6 7 8 9 10 11 12 13 14 15 16 17 18 19 20 21 22 23 24 25 26 27 28 29 30 31 32 33 34 35 36 37 38 39 40 41 42 43 44 45 46 47 48 49 50
852
ASUS43 KFSD 281002
RWRFSD

WEATHER ROUNDUP FOR SE SOUTH DAKOTA/SW MINNESOTA/NW IOWA
NATIONAL WEATHER SERVICE SIOUX FALLS SD
500 AM CDT FRI APR 28 2017

NOTE: "FAIR" INDICATES FEW OR NO CLOUDS BELOW 12,000 FEET WITH NO
SIGNIFICANT WEATHER AND OR OBSTRUCTIONS TO VISIBILITY.


SDZ038>040-050-052>070-281100-
SOUTHEAST SOUTH DAKOTA

CITY           SKY/WX    TMP DP  RH WIND       PRES   REMARKS
BROOKINGS      CLEAR     24  23  96 CALM      29.85S
CHAMBERLAIN    CLOUDY    32  30  90 E5        29.84R WCI  28
HURON          CLOUDY    27  24  89 NE5       29.86R WCI  22
MADISON        FAIR      25  25 100 CALM      29.85R
MITCHELL       CLOUDY    29  26  89 CALM      29.86R
SIOUX FALLS    CLEAR     26  25  96 N6        29.85R WCI  19
WINNER         CLOUDY    36  30  79 E8        29.80R
YANKTON        CLOUDY    30  27  86 NE5       29.83S WCI  25
$$

MNZ071-072-080-081-089-090-097-098-281100-
SOUTHWEST MINNESOTA

CITY           SKY/WX    TMP DP  RH WIND       PRES   REMARKS
FAIRMONT       CLEAR     28  27  96 NW3       29.87R
JACKSON        CLEAR     28  25  86 CALM      29.86R
MARSHALL       PTCLDY    29  27  92 NW9       29.87R WCI  20
MONTEVIDEO     CLEAR     30  28  93 NW5       29.87R WCI  25
PIPESTONE      CLEAR     28  25  86 CALM      29.85R
REDWOOD FALLS  CLEAR     34  27  75 W9        29.86R WCI  27
TRACY          CLOUDY    35  30  83 W5        29.86S
WINDOM         CLEAR     27  27 100 CALM      29.86R
WORTHINGTON    CLEAR     26  24  92 CALM      29.86R
$$

IAZ001>003-012>014-020>022-031-032-NEZ013-014-SDZ071-281100-
NORTHWEST IOWA

CITY           SKY/WX    TMP DP  RH WIND       PRES   REMARKS
CHEROKEE       CLOUDY    29  28  95 CALM      29.85S
DENISON        CLOUDY    34  28  80 E12       29.85S WCI  25
ESTHERVILLE    CLEAR     26  25  96 NW3       29.85S
LE MARS        CLOUDY    32  28  86 CALM      29.86R
ORANGE CITY    CLOUDY    30  27  86 E5        29.84R WCI  25
SHELDON        CLOUDY    28  27  93 E7        29.83S WCI  21
SIOUX CITY     PTCLDY    32  28  85 SE6       29.84S WCI  26
SPENCER        CLEAR     24  21  88 CALM      29.85S
STORM LAKE     PTCLDY    28  27  93 E9        29.84S WCI  20
$$

ABBREVIATIONS USED IN REMARKS
   TC - TEMPERATURE IN CELSIUS
  WCI - WIND CHILL INDEX
   HX - HEAT INDEX
  VSB - VISIBILITY





USA.gov is the U.S. government's official web portal to all federal, state and local government web resources and services.